Tekamah, NE

3:38 PM CDT on August 24, 2016 (GMT -0500)
Tekamah

Weather History for KTQE - September, 2013

Change the Weather History Date:

Sunday, September 22, 2013

  Actual Average Record
Temperature  
Mean Temperature 68 °F -  
Max Temperature 84 °F 74 °F 90 °F (1988)
Min Temperature 51 °F 46 °F 34 °F (1954)
Cooling Degree Days 2    
Growing Degree Days 18 (Base 50)    
Moisture  
Dew Point 51 °F    
Average Humidity 63    
Maximum Humidity 90    
Minimum Humidity 28    
Precipitation  
Precipitation 0.00 in - - ()
Sea Level Pressure  
Sea Level Pressure 29.82 in    
Wind  
Wind Speed 9 mph (SSE)    
Max Wind Speed 22 mph    
Max Gust Speed 31 mph    
Visibility 10 miles    
Events      
Averages and records for this station are not official NWS values.
T = Trace of Precipitation, MM = Missing Value Source: NWS Daily Summary

Daily Weather History Graph

Daily Weather History Graph

Search for Another Location

Airport or City:

Trip Planner

Search our weather history database for the weather conditions in past years. The results will help you decide how hot, cold, wet, or windy it might be!

Date:

Astronomy

Sep. 22, 2013 Rise Set
Actual Time 7:12 AM CDT 7:21 PM CDT
Civil Twilight 6:44 AM CDT 7:49 PM CDT
Nautical Twilight 6:12 AM CDT 8:21 PM CDT
Astronomical Twilight 5:38 AM CDT 8:54 PM CDT
Moon 9:08 PM CDT (9/22) 10:37 AM CDT (9/22)
Length of Visible Light 13h 04m
Length of Day
12h 09m
Waning Gibbous, 88% of the Moon is Illuminated
Sep 22
Waning Gibbous
Sep 26
Last Quarter
Oct 4
New
Oct 11
First Quarter
Oct 18
Full

Hourly Weather History & Observations

Time (CDT) Temp. Heat Index Dew Point Humidity Pressure Visibility Wind Dir Wind Speed Gust Speed Precip Events Conditions
12:54 AM 53.1 °F - 50.0 °F 89% 29.86 in 10.0 mi SE 5.8 mph - N/A   Clear
1:54 AM 53.1 °F - 50.0 °F 89% 29.85 in 10.0 mi SSE 4.6 mph - N/A   Clear
2:54 AM 51.1 °F - 48.0 °F 89% 29.85 in 10.0 mi SSE 4.6 mph - N/A   Clear
3:54 AM 53.1 °F - 50.0 °F 89% 29.84 in 10.0 mi SE 5.8 mph - N/A   Clear
4:54 AM 53.1 °F - 50.0 °F 89% 29.83 in 10.0 mi SE 6.9 mph - N/A   Clear
5:54 AM 52.0 °F - 48.9 °F 89% 29.85 in 10.0 mi SSE 5.8 mph - N/A   Clear
6:54 AM 53.1 °F - 50.0 °F 89% 29.85 in 10.0 mi SE 6.9 mph - N/A   Clear
7:54 AM 54.0 °F - 51.1 °F 90% 29.86 in 10.0 mi SE 5.8 mph - N/A   Clear
8:54 AM 60.1 °F - 55.0 °F 83% 29.87 in 10.0 mi SE 5.8 mph - N/A   Clear
9:54 AM 66.9 °F - 55.9 °F 68% 29.87 in 10.0 mi SSE 9.2 mph - N/A   Clear
10:54 AM 75.0 °F - 55.9 °F 51% 29.86 in 10.0 mi South 11.5 mph - N/A   Clear
11:54 AM 79.0 °F - 52.0 °F 39% 29.84 in 10.0 mi South 16.1 mph 25.3 mph N/A   Clear
12:54 PM 81.0 °F 80.4 °F 53.1 °F 38% 29.82 in 10.0 mi South 11.5 mph 24.2 mph N/A   Clear
1:54 PM 82.9 °F - 48.9 °F 31% 29.80 in 10.0 mi South 20.7 mph 31.1 mph N/A   Clear
2:54 PM 84.0 °F - 48.0 °F 28% 29.78 in 10.0 mi South 21.9 mph 27.6 mph N/A   Clear
3:54 PM 82.9 °F - 48.9 °F 31% 29.77 in 10.0 mi SSE 21.9 mph 28.8 mph N/A   Clear
4:54 PM 82.0 °F - 48.0 °F 30% 29.76 in 10.0 mi SSE 16.1 mph 24.2 mph N/A   Clear
5:54 PM 80.1 °F - 48.0 °F 32% 29.76 in 10.0 mi SSE 15.0 mph 26.5 mph N/A   Clear
6:54 PM 75.0 °F - 51.1 °F 43% 29.77 in 10.0 mi SSE 11.5 mph - N/A   Clear
7:54 PM 69.1 °F - 51.1 °F 53% 29.78 in 10.0 mi SE 10.4 mph - N/A   Clear
8:54 PM 66.9 °F - 52.0 °F 59% 29.79 in 10.0 mi SE 10.4 mph - N/A   Clear
9:54 PM 64.0 °F - 53.1 °F 67% 29.80 in 10.0 mi SE 9.2 mph - N/A   Clear
10:54 PM 62.1 °F - 53.1 °F 72% 29.80 in 10.0 mi SE 8.1 mph - N/A   Clear
11:54 PM 60.1 °F - 52.0 °F 75% 29.80 in 10.0 mi SE 8.1 mph - N/A   Clear